[Iaude] MPEC T53: 2016 TD10 [a=2.35,e=0.51,i=7.8,H=21.5]

mpec at si.edu mpec at si.edu
Thu Oct 6 13:03:42 EDT 2016


M.P.E.C. 2016-T53                                Issued 2016 Oct. 6, 16:59 UT
 
     The Minor Planet Electronic Circulars contain information on unusual
         minor planets and routine data on comets.  They are published
    on behalf of Division F of the International Astronomical Union by the
          Minor Planet Center, Smithsonian Astrophysical Observatory,
                          Cambridge, MA 02138, U.S.A.

             Prepared using the Tamkin Foundation Computer Network

                              MPC at CFA.HARVARD.EDU
            URL http://www.minorplanetcenter.net/    ISSN 1523-6714


                                   2016 TD10
 
Observations:
     K16T10D* C2016 10 01.23990 20 23 43.764-02 06 59.67         22.0 wLET053F51
     K16T10D  C2016 10 01.25167 20 23 46.362-02 06 47.42         22.0 wLET053F51
     K16T10D  C2016 10 01.26342 20 23 48.933-02 06 35.18         22.1 wLET053F51
     K16T10D KC2016 10 02.17139 20 27 15.07 -01 51 00.2                oET053291
     K16T10D KC2016 10 02.17653 20 27 16.23 -01 50 54.2                oET053291
     K16T10D KC2016 10 02.18170 20 27 17.35 -01 50 49.5                oET053291
     K16T10D KC2016 10 03.05519020 30 34.54 -01 36 04.9          21.9 VuET053H21
     K16T10D KC2016 10 03.06431320 30 36.51 -01 35 55.6          22.0 VuET053H21
     K16T10D KC2016 10 03.07666920 30 39.22 -01 35 43.5          22.1 VuET053H21
     K16T10D KC2016 10 06.16685 20 42 01.29 -00 45 33.9                oET053291
     K16T10D KC2016 10 06.17286 20 42 02.63 -00 45 28.0                oET053291
 
Observer details:
291 LPL/Spacewatch II.  Observers A. F. Tubbiolo, J. V. Scotti.  1.8-m f/2.7
    reflector + CCD.
F51 Pan-STARRS 1, Haleakala.  Observers B. Gibson, T. Goggia, S. Kahale,
    A. Schultz, M. Willman.  Measurers K. Chambers, S. Chastel, L. Denneau,
    H. Flewelling, M. Huber, E. Lilly, E. Magnier, R. Wainscoat, C. Waters,
    R. Weryk.  1.8-m Ritchey-Chretien + CCD.
H21 Astronomical Research Observatory, Westfield.  Observer R. Holmes.
    Measurers S. Foglia, L. Buzzi, T. Linder, R. Holmes.  1.3-m f/4.0
    astrograph + CCD.
 
Orbital elements:
2016 TD10                                                Earth MOID = 0.1483 AU
Epoch 2016 July 31.0 TT = JDT 2457600.5                 MPC
M 355.26691              (2000.0)            P               Q
n   0.27338916     Peri.    5.78767     +0.65378817     +0.74841773
a   2.3511582      Node   305.09847     -0.69959015     +0.54171630
e   0.5054646      Incl.    7.83258     -0.28833080     +0.38264129
P   3.61           H   21.5           G   0.15           U   8
Residuals in seconds of arc
161001 F51  0.2+  0.0     161002 291  0.3+  0.4+    161003 H21  0.3+  0.1-
161001 F51  0.2+  0.0     161002 291  0.1+  0.2-    161006 291  0.4-  0.2-
161001 F51  0.0   0.0     161003 H21  0.3+  0.1+    161006 291  0.7+  0.1+
161002 291  0.2-  0.4-    161003 H21  0.0   0.3+

Ephemeris:
2016 TD10                a,e,i = 2.35, 0.51, 8                   q = 1.1627
Date    TT    R. A. (2000) Decl.     Delta      r     Elong.  Phase     V
2016 09 06    18 36 25.9 -11 20 17   0.3274  1.1838   114.9    50.5    21.3
...
2016 09 21    19 42 46.4 -05 24 41   0.3811  1.2263   117.3    46.7    21.6
...
2016 09 29    20 15 06.3 -02 46 46   0.4227  1.2570   118.0    44.7    21.8
...
2016 10 05    20 37 46.2 -01 03 57   0.4597  1.2831   118.2    43.4    22.0
2016 10 06    20 41 25.1 -00 48 02   0.4663  1.2877   118.2    43.2    22.1
2016 10 07    20 45 01.7 -00 32 26   0.4731  1.2923   118.2    42.9    22.1
...
2016 10 13    21 05 56.4 +00 54 41   0.5167  1.3215   118.0    41.8    22.3
...
2016 10 21    21 31 55.0 +02 35 57   0.5822  1.3635   117.2    40.5    22.6
...
2016 11 05    22 15 42.6 +05 13 32   0.7273  1.4495   114.1    38.6    23.2

A. U. Tomatic                (C) Copyright 2016 MPC           M.P.E.C. 2016-T53




More information about the Iaude mailing list